Weather History for KBVY - May, 2014

Change the Weather History Date:

Friday, May 9, 2014

  Actual Average Record
Temperature  
Mean Temperature 52 °F -  
Max Temperature 55 °F 61 °F 84 °F (2007)
Min Temperature 50 °F 42 °F 37 °F (1985)
Degree Days  
Heating Degree Days 13    
Growing Degree Days 2 (Base 50)    
Moisture  
Dew Point 46 °F    
Average Humidity 82    
Maximum Humidity 93    
Minimum Humidity 62    
Precipitation  
Precipitation 0.01 in - - ()
Sea Level Pressure  
Sea Level Pressure 30.18 in    
Wind  
Wind Speed 4 mph (ENE)    
Max Wind Speed 7 mph    
Max Gust Speed -    
Visibility 8 miles    
Events Rain    
Averages and records for this station are not official NWS values.
T = Trace of Precipitation, MM = Missing Value Source: NWS Daily Summary

Daily Weather History Graph

Daily Weather History Graph

Search for Another Location

Airport or City:

Trip Planner

Search our weather history database for the weather conditions in past years. The results will help you decide how hot, cold, wet, or windy it might be!

Date:

Astronomy

May. 09, 2014 Rise Set
Actual Time 5:28 AM EDT 7:52 PM EDT
Civil Twilight 4:56 AM EDT 8:24 PM EDT
Nautical Twilight 4:17 AM EDT 9:03 PM EDT
Astronomical Twilight 3:33 AM EDT 9:48 PM EDT
Moon 2:40 PM EDT (5/9) 2:36 AM EDT (5/9)
Length of Visible Light 15h 27m
Length of Day
14h 24m
Waxing Gibbous, 73% of the Moon is Illuminated
May 9
Waxing Gibbous
May 14
Full
May 21
Last Quarter
May 28
New
Jun 5
First Quarter

Hourly Weather History & Observations

Time (EDT) Temp. Dew Point Humidity Pressure Visibility Wind Dir Wind Speed Gust Speed Precip Events Conditions
1:53 AM 50.0 °F 46.9 °F 89% 30.16 in 10.0 mi Calm Calm - N/A   Clear
2:53 AM 50.0 °F 46.9 °F 89% 30.15 in 10.0 mi NE 4.6 mph - N/A   Clear
3:53 AM 50.0 °F 46.9 °F 89% 30.17 in 10.0 mi Calm Calm - N/A   Overcast
4:53 AM 50.0 °F 46.9 °F 89% 30.17 in 10.0 mi NNE 4.6 mph - 0.00 in Rain Light Rain
5:02 AM 50.0 °F 46.9 °F 89% 30.19 in 10.0 mi North 6.9 mph - 0.00 in   Mostly Cloudy
5:11 AM 50.0 °F 46.9 °F 89% 30.19 in 10.0 mi NNE 5.8 mph - 0.00 in   Overcast
5:46 AM 50.0 °F 46.9 °F 89% 30.19 in 7.0 mi Calm Calm - 0.00 in   Overcast
5:53 AM 50.0 °F 46.9 °F 89% 30.18 in 7.0 mi North 3.5 mph - 0.00 in   Overcast
6:53 AM 51.1 °F 48.0 °F 89% 30.20 in 7.0 mi NE 4.6 mph - N/A   Overcast
7:44 AM 52.0 °F 48.0 °F 86% 30.22 in 10.0 mi ENE 3.5 mph - N/A   Overcast
7:53 AM 52.0 °F 46.9 °F 83% 30.21 in 10.0 mi ENE 4.6 mph - N/A   Overcast
8:53 AM 54.0 °F 42.1 °F 64% 30.22 in 10.0 mi East 4.6 mph - N/A   Overcast
9:30 AM 54.0 °F 41.0 °F 62% 30.24 in 10.0 mi East 5.8 mph - N/A   Overcast
9:53 AM 54.0 °F 41.0 °F 62% 30.23 in 10.0 mi NE 3.5 mph - N/A   Overcast
10:53 AM 53.6 °F 42.8 °F 67% 30.25 in 10.0 mi NE 6.9 mph - N/A   Overcast
11:38 AM 53.1 °F 43.0 °F 69% 30.24 in 10.0 mi NNE 5.8 mph - N/A   Overcast
11:53 AM 53.1 °F 43.0 °F 69% 30.23 in 10.0 mi ENE 5.8 mph - N/A   Overcast
12:53 PM 53.1 °F 45.0 °F 74% 30.22 in 10.0 mi NE 4.6 mph - N/A   Overcast
1:53 PM 50.0 °F 46.0 °F 86% 30.21 in 5.0 mi NE 5.8 mph - N/A   Overcast
2:01 PM 50.0 °F 46.0 °F 86% 30.22 in 5.0 mi NE 4.6 mph - N/A   Overcast
2:35 PM 50.0 °F 46.9 °F 89% 30.21 in 1.8 mi North 3.5 mph - 0.00 in Rain Light Rain
2:53 PM 50.0 °F 46.9 °F 89% 30.20 in 1.8 mi NNE 5.8 mph - 0.00 in   Overcast
3:00 PM 50.0 °F 46.9 °F 89% 30.20 in 2.0 mi ENE 5.8 mph - 0.01 in   Overcast
3:12 PM 50.0 °F 48.0 °F 93% 30.21 in 4.0 mi Calm Calm - 0.01 in   Overcast
3:30 PM 50.0 °F 48.0 °F 93% 30.19 in 2.0 mi ENE 3.5 mph - 0.01 in   Overcast
3:41 PM 50.0 °F 48.0 °F 93% 30.19 in 1.2 mi NE 3.5 mph - 0.01 in   Overcast
3:53 PM 51.1 °F 48.9 °F 92% 30.18 in 2.0 mi NE 3.5 mph - 0.01 in   Overcast
4:03 PM 51.1 °F 48.9 °F 92% 30.19 in 4.0 mi NE 4.6 mph - N/A   Overcast
4:50 PM 53.6 °F 50.0 °F 88% 30.18 in 8.0 mi ESE 4.6 mph - N/A   Overcast
4:53 PM 53.1 °F 50.0 °F 89% 30.17 in 9.0 mi ESE 3.5 mph - N/A   Overcast
5:31 PM 52.0 °F 46.0 °F 80% 30.16 in 10.0 mi SE 5.8 mph - N/A   Overcast
5:53 PM 52.0 °F 45.0 °F 77% 30.15 in 10.0 mi SE 4.6 mph - N/A   Overcast
6:06 PM 52.0 °F 45.0 °F 77% 30.16 in 10.0 mi ESE 4.6 mph - N/A   Overcast
6:53 PM 52.0 °F 43.0 °F 71% 30.14 in 10.0 mi East 4.6 mph - N/A   Overcast
7:53 PM 51.8 °F 42.8 °F 71% 30.16 in 10.0 mi East 3.5 mph - N/A   Overcast
8:53 PM 52.0 °F 44.1 °F 74% 30.12 in 10.0 mi SE 3.5 mph - N/A   Overcast
9:53 PM 53.1 °F 46.0 °F 77% 30.10 in 10.0 mi SE 4.6 mph - N/A   Overcast
10:53 PM 51.8 °F 46.4 °F 82% 30.09 in 10.0 mi ESE 4.6 mph - N/A   Overcast
11:27 PM 52.0 °F 46.0 °F 80% 30.09 in 10.0 mi SE 3.5 mph - N/A   Overcast
11:53 PM 52.0 °F 46.9 °F 83% 30.08 in 10.0 mi Calm Calm - N/A   Overcast